Date,TemperatureHighF,TemperatureAvgF,TemperatureLowF,DewpointHighF,DewpointAvgF,DewpointLowF,HumidityHigh,HumidityAvg,HumidityLow,PressureMaxIn,PressureMinIn,WindSpeedMaxMPH,WindSpeedAvgMPH,GustSpeedMaxMPH,PrecipitationSumIn
2013-3-1,29.3,26.3,24.2,24.3,22.2,18.1,91,84,77,30.34,30.16,4,1,7,0.00
2013-3-2,28.8,21.1,12.1,19.2,15.6,9.7,90,79,64,30.36,30.23,5,1,7,0.00
2013-3-3,31.8,26.6,20.7,24.5,20.7,16.2,92,79,68,30.23,29.97,6,2,12,0.01
2013-3-4,35.9,30.8,25.8,31.2,28.0,24.1,95,90,81,29.97,29.82,8,4,15,0.01
2013-3-5,31.5,28.9,26.9,27.9,25.3,22.2,95,87,73,30.29,29.95,11,5,18,0.07
2013-3-6,28.5,24.3,16.7,24.0,19.7,14.5,91,83,73,30.44,30.29,8,3,11,0.00
2013-3-7,31.9,22.4,11.8,26.0,19.3,9.7,93,88,77,30.43,30.32,5,1,10,0.01
2013-3-8,41.7,33.3,24.8,34.8,29.4,22.0,93,86,75,30.34,30.08,7,4,15,0.02
2013-3-9,41.5,38.0,36.0,41.0,37.0,34.1,100,96,85,30.07,29.65,9,4,13,0.93
2013-3-10,40.5,35.9,33.2,40.0,35.4,32.4,99,98,97,29.76,29.62,5,2,10,0.60
2013-3-11,33.2,28.9,25.2,32.4,26.5,21.6,98,91,81,29.95,29.69,9,5,14,0.00
2013-3-12,33.2,26.9,21.9,28.4,22.7,19.1,92,84,74,30.25,29.95,11,4,21,0.01
2013-3-13,26.8,24.2,20.7,21.9,19.2,16.4,83,81,78,30.39,30.25,8,4,13,0.00
2013-3-14,50.3,36.6,26.0,37.0,29.8,21.6,90,77,58,30.36,30.07,5,1,9,0.00
2013-3-15,50.9,39.1,30.2,42.9,35.6,28.4,95,88,73,30.07,29.72,7,1,13,0.01
2013-3-16,36.4,32.5,27.2,34.4,27.5,21.5,95,82,67,30.21,29.78,8,4,14,0.00
2013-3-17,37.8,29.9,22.5,28.7,23.4,17.5,85,77,65,30.21,29.87,9,4,15,0.00
2013-3-18,33.9,28.5,20.9,32.8,23.7,14.2,97,83,64,30.00,29.72,14,5,24,0.09
2013-3-19,34.2,24.6,15.9,22.6,14.5,8.3,80,66,50,30.27,29.97,9,4,21,0.01
2013-3-20,25.5,20.4,14.7,14.6,9.9,5.3,77,64,50,30.34,30.18,11,6,17,0.00
2013-3-21,18.9,16.5,14.5,12.3,10.6,8.9,79,77,75,30.18,30.16,2,0,6,0.00
2013-3-23,38.8,33.5,26.4,29.5,25.1,19.1,95,73,48,30.14,30.01,3,0,6,0.00
2013-3-24,30.8,29.3,27.8,29.0,27.7,26.3,96,94,91,30.06,29.88,6,2,12,0.08
2013-3-25,36.0,30.4,27.0,27.4,25.1,22.4,96,81,62,30.26,29.97,8,4,16,0.06
2013-3-26,39.9,30.7,23.1,27.5,23.7,20.0,88,76,56,30.35,30.26,7,2,12,0.00
2013-3-27,44.4,34.3,23.9,31.0,26.4,21.0,90,73,54,30.37,30.28,3,0,8,0.00
2013-3-28,53.4,40.9,28.8,37.3,31.6,25.7,89,71,51,30.33,30.23,6,2,11,0.00
2013-3-29,59.2,45.9,32.0,40.6,34.6,28.8,90,67,44,30.29,30.13,6,2,11,0.00
2013-3-30,51.8,45.7,41.2,51.0,42.8,34.1,98,90,67,30.13,29.86,5,1,8,0.24
2013-3-31,51.0,41.4,32.8,42.2,34.4,23.0,99,78,45,30.08,29.87,10,4,16,0.01